| time (UTC) | temp F | wind direction | speed MPH | gust MPH | rain 1hr in | rain 24hr in | rain mn in | humidity % | barometer mb |
| 20260508182455 | 77 | 250 | 4.0 | 12.0 | 0.00 | 0.00 | 0.00 | 16 | 1019.2 |
| 20260508182226 | 76 | 272 | 3.0 | 11.0 | 0.00 | 0.00 | 0.00 | 17 | 1019.3 |
| 20260508181453 | 76 | 259 | 3.0 | 13.0 | 0.00 | 0.00 | 0.00 | 17 | 1019.3 |
| 20260508181227 | 76 | 287 | 4.0 | 13.0 | 0.00 | 0.00 | 0.00 | 18 | 1019.3 |
| 20260508180455 | 75 | 340 | 4.0 | 14.0 | 0.00 | 0.00 | 0.00 | 17 | 1019.4 |
| 20260508175953 | 75 | 285 | 3.0 | 14.0 | 0.00 | 0.00 | 0.00 | 18 | 1019.4 |
| 20260508175455 | 75 | 254 | 3.0 | 9.0 | 0.00 | 0.00 | 0.00 | 18 | 1019.4 |
| 20260508174955 | 75 | 324 | 3.0 | 10.0 | 0.00 | 0.00 | 0.00 | 19 | 1019.6 |
| 20260508174450 | 74 | 242 | 4.0 | 10.0 | 0.00 | 0.00 | 0.00 | 18 | 1019.6 |
| 20260508173951 | 74 | 269 | 3.0 | 9.0 | 0.00 | 0.00 | 0.00 | 19 | 1019.6 |
| 20260508173450 | 74 | 247 | 3.0 | 10.0 | 0.00 | 0.00 | 0.00 | 19 | 1019.6 |
| 20260508172951 | 74 | 17 | 3.0 | 10.0 | 0.00 | 0.00 | 0.00 | 19 | 1019.7 |
| 20260508172452 | 74 | 283 | 2.0 | 6.0 | 0.00 | 0.00 | 0.00 | 19 | 1019.7 |
| 20260508171951 | 74 | 257 | 2.0 | 6.0 | 0.00 | 0.00 | 0.00 | 20 | 1019.8 |
| 20260508171445 | 74 | 275 | 1.0 | 6.0 | 0.00 | 0.00 | 0.00 | 20 | 1019.8 |
| 20260508170445 | 73 | 86 | 2.0 | 8.0 | 0.00 | 0.00 | 0.00 | 22 | 1019.9 |
| 20260508165946 | 73 | 322 | 3.0 | 9.0 | 0.00 | 0.00 | 0.00 | 19 | 1019.9 |
| 20260508165445 | 73 | 273 | 2.0 | 9.0 | 0.00 | 0.00 | 0.00 | 20 | 1019.9 |
| 20260508164947 | 73 | 297 | 2.0 | 7.0 | 0.00 | 0.00 | 0.00 | 21 | 1019.8 |
| 20260508164712 | 72 | 250 | 2.0 | 7.0 | 0.00 | 0.00 | 0.00 | 21 | 1019.8 |
| 20260508163941 | 73 | 309 | 1.0 | 6.0 | 0.00 | 0.00 | 0.00 | 22 | 1019.8 |
| 20260508163442 | 73 | 46 | 1.0 | 6.0 | 0.00 | 0.00 | 0.00 | 21 | 1019.8 |
| 20260508162941 | 72 | 325 | 0.0 | 5.0 | 0.00 | 0.00 | 0.00 | 22 | 1019.8 |
| 20260508162444 | 71 | 31 | 1.0 | 6.0 | 0.00 | 0.00 | 0.00 | 23 | 1019.8 |
| 20260508161943 | 71 | 278 | 2.0 | 6.0 | 0.00 | 0.00 | 0.00 | 21 | 1019.8 |
| 20260508161438 | 71 | 257 | 2.0 | 7.0 | 0.00 | 0.00 | 0.00 | 21 | 1019.7 |
| 20260508161209 | 71 | 254 | 3.0 | 7.0 | 0.00 | 0.00 | 0.00 | 21 | 1019.8 |
| 20260508160440 | 71 | 282 | 2.0 | 6.0 | 0.00 | 0.00 | 0.00 | 21 | 1019.7 |
| 20260508155937 | 71 | 258 | 2.0 | 6.0 | 0.00 | 0.00 | 0.00 | 21 | 1019.7 |
| 20260508155439 | 70 | 268 | 3.0 | 6.0 | 0.00 | 0.00 | 0.00 | 21 | 1019.7 |
| 20260508154939 | 70 | 251 | 3.0 | 6.0 | 0.00 | 0.00 | 0.00 | 22 | 1019.7 |
| 20260508154433 | 69 | 247 | 3.0 | 7.0 | 0.00 | 0.00 | 0.00 | 20 | 1019.6 |
| 20260508153934 | 69 | 240 | 3.0 | 7.0 | 0.00 | 0.00 | 0.00 | 21 | 1019.7 |
| 20260508153705 | 69 | 254 | 3.0 | 6.0 | 0.00 | 0.00 | 0.00 | 22 | 1019.6 |
| 20260508152934 | 69 | 290 | 3.0 | 7.0 | 0.00 | 0.00 | 0.00 | 20 | 1019.6 |
| 20260508152433 | 69 | 247 | 3.0 | 7.0 | 0.00 | 0.00 | 0.00 | 21 | 1019.6 |
| 20260508151936 | 68 | 245 | 2.0 | 6.0 | 0.00 | 0.00 | 0.00 | 22 | 1019.6 |
| 20260508151429 | 68 | 244 | 2.0 | 5.0 | 0.00 | 0.00 | 0.00 | 21 | 1019.6 |
| 20260508150929 | 68 | 272 | 1.0 | 5.0 | 0.00 | 0.00 | 0.00 | 21 | 1019.7 |
| 20260508150703 | 67 | 234 | 0.0 | 4.0 | 0.00 | 0.00 | 0.00 | 29 | 1019.6 |
| 20260508145929 | 65 | 115 | 1.0 | 4.0 | 0.00 | 0.00 | 0.00 | 35 | 1019.6 |
| 20260508145431 | 64 | 113 | 2.0 | 4.0 | 0.00 | 0.00 | 0.00 | 37 | 1019.7 |
| 20260508144931 | 62 | 91 | 2.0 | 4.0 | 0.00 | 0.00 | 0.00 | 34 | 1019.7 |
| 20260508144426 | 62 | 104 | 1.0 | 4.0 | 0.00 | 0.00 | 0.00 | 36 | 1019.6 |
| 20260508143926 | 61 | 125 | 1.0 | 6.0 | 0.00 | 0.00 | 0.00 | 38 | 1019.6 |
| 20260508143427 | 60 | 68 | 2.0 | 6.0 | 0.00 | 0.00 | 0.00 | 39 | 1019.4 |
| 20260508142926 | 59 | 150 | 4.0 | 7.0 | 0.00 | 0.00 | 0.00 | 38 | 1019.6 |
| 20260508142426 | 58 | 79 | 4.0 | 7.0 | 0.00 | 0.00 | 0.00 | 38 | 1019.6 |
| 20260508141927 | 57 | 61 | 4.0 | 7.0 | 0.00 | 0.00 | 0.00 | 38 | 1019.4 |
| 20260508141422 | 56 | 79 | 4.0 | 7.0 | 0.00 | 0.00 | 0.00 | 40 | 1019.4 |
| 20260508140922 | 54 | 46 | 4.0 | 7.0 | 0.00 | 0.00 | 0.00 | 43 | 1019.4 |
| 20260508140653 | 53 | 96 | 4.0 | 7.0 | 0.00 | 0.00 | 0.00 | 43 | 1019.4 |
| 20260508135921 | 52 | 83 | 4.0 | 7.0 | 0.00 | 0.00 | 0.00 | 44 | 1019.3 |
| 20260508134923 | 49 | 91 | 2.0 | 7.0 | 0.00 | 0.00 | 0.00 | 49 | 1019.3 |
| 20260508133918 | 47 | 86 | 2.0 | 6.0 | 0.00 | 0.00 | 0.00 | 51 | 1019.3 |
| 20260508133419 | 46 | 113 | 0.0 | 5.0 | 0.00 | 0.00 | 0.00 | 54 | 1019.4 |
| 20260508133150 | 45 | 110 | 0.0 | 4.0 | 0.00 | 0.00 | 0.00 | 55 | 1019.3 |
| 20260508131415 | 42 | 133 | 1.0 | 2.0 | 0.00 | 0.00 | 0.00 | 58 | 1019.3 |
| 20260508130914 | 41 | 140 | 1.0 | 2.0 | 0.00 | 0.00 | 0.00 | 60 | 1019.3 |
| 20260508130413 | 40 | 133 | 1.0 | 2.0 | 0.00 | 0.00 | 0.00 | 62 | 1019.3 |
| 20260508125914 | 39 | 118 | 0.0 | 2.0 | 0.00 | 0.00 | 0.00 | 64 | 1019.3 |
| 20260508125414 | 38 | 155 | 0.0 | 2.0 | 0.00 | 0.00 | 0.00 | 64 | 1019.3 |
| 20260508124915 | 38 | 117 | 1.0 | 3.0 | 0.00 | 0.00 | 0.00 | 64 | 1019.2 |
| 20260508124141 | 38 | 137 | 2.0 | 5.0 | 0.00 | 0.00 | 0.00 | 63 | 1019.1 |
| 20260508123410 | 38 | 124 | 2.0 | 5.0 | 0.00 | 0.00 | 0.00 | 63 | 1019.0 |
| 20260508123140 | 38 | 147 | 2.0 | 5.0 | 0.00 | 0.00 | 0.00 | 63 | 1019.0 |
| 20260508122410 | 38 | 112 | 2.0 | 5.0 | 0.00 | 0.00 | 0.00 | 63 | 1019.0 |
| 20260508121911 | 37 | 121 | 1.0 | 4.0 | 0.00 | 0.00 | 0.00 | 64 | 1018.8 |
| 20260508121405 | 37 | 170 | 0.0 | 2.0 | 0.00 | 0.00 | 0.00 | 64 | 1018.8 |
| 20260508120907 | 37 | 170 | 0.0 | 2.0 | 0.00 | 0.00 | 0.00 | 64 | 1018.7 |
| 20260508120406 | 37 | 150 | 0.0 | 2.0 | 0.00 | 0.00 | 0.00 | 64 | 1018.7 |
| 20260508115906 | 37 | 138 | 0.0 | 2.0 | 0.00 | 0.00 | 0.00 | 64 | 1018.6 |
| 20260508115406 | 38 | 138 | 1.0 | 3.0 | 0.00 | 0.00 | 0.00 | 63 | 1018.6 |
| 20260508114907 | 38 | 137 | 2.0 | 4.0 | 0.00 | 0.00 | 0.00 | 63 | 1018.6 |
| 20260508114633 | 38 | 96 | 2.0 | 4.0 | 0.00 | 0.00 | 0.00 | 63 | 1018.6 |
| 20260508114134 | 38 | 115 | 1.0 | 3.0 | 0.00 | 0.00 | 0.00 | 62 | 1018.5 |
| 20260508113404 | 38 | 130 | 1.0 | 5.0 | 0.00 | 0.00 | 0.00 | 62 | 1018.6 |
| 20260508112902 | 38 | 150 | 0.0 | 5.0 | 0.00 | 0.00 | 0.00 | 61 | 1018.5 |
| 20260508112403 | 39 | 84 | 1.0 | 5.0 | 0.00 | 0.00 | 0.00 | 60 | 1018.5 |
| 20260508111903 | 39 | 84 | 1.0 | 5.0 | 0.00 | 0.00 | 0.00 | 61 | 1018.4 |
| 20260508111627 | 38 | 140 | 0.0 | 1.0 | 0.00 | 0.00 | 0.00 | 61 | 1018.4 |
| 20260508110853 | 39 | 193 | 0.0 | 4.0 | 0.00 | 0.00 | 0.00 | 61 | 1018.4 |
| 20260508110349 | 39 | 194 | 1.0 | 4.0 | 0.00 | 0.00 | 0.00 | 61 | 1018.4 |
| 20260508105843 | 39 | 115 | 2.0 | 4.0 | 0.00 | 0.00 | 0.00 | 60 | 1018.5 |
| 20260508105343 | 39 | 155 | 2.0 | 4.0 | 0.00 | 0.00 | 0.00 | 60 | 1018.5 |
| 20260508105108 | 39 | 149 | 1.0 | 3.0 | 0.00 | 0.00 | 0.00 | 60 | 1018.5 |
| 20260508104332 | 39 | 157 | 0.0 | 2.0 | 0.00 | 0.00 | 0.00 | 59 | 1018.5 |
| 20260508103827 | 39 | 144 | 0.0 | 2.0 | 0.00 | 0.00 | 0.00 | 59 | 1018.5 |
| 20260508103323 | 39 | 145 | 0.0 | 2.0 | 0.00 | 0.00 | 0.00 | 59 | 1018.5 |
| 20260508102817 | 39 | 209 | 0.0 | 3.0 | 0.00 | 0.00 | 0.00 | 59 | 1018.5 |
| 20260508102315 | 40 | 162 | 0.0 | 3.0 | 0.00 | 0.00 | 0.00 | 58 | 1018.6 |
| 20260508101305 | 40 | 143 | 1.0 | 4.0 | 0.00 | 0.00 | 0.00 | 58 | 1018.5 |
| 20260508101033 | 40 | 146 | 1.0 | 4.0 | 0.00 | 0.00 | 0.00 | 58 | 1018.5 |
| 20260508100259 | 40 | 120 | 1.0 | 4.0 | 0.00 | 0.00 | 0.00 | 57 | 1018.5 |
| 20260508095752 | 40 | 117 | 2.0 | 5.0 | 0.00 | 0.00 | 0.00 | 57 | 1018.5 |
| 20260508095249 | 40 | 112 | 2.0 | 5.0 | 0.00 | 0.00 | 0.00 | 57 | 1018.5 |
| 20260508095013 | 40 | 97 | 1.0 | 5.0 | 0.00 | 0.00 | 0.00 | 57 | 1018.5 |
| 20260508094239 | 40 | 117 | 1.0 | 4.0 | 0.00 | 0.00 | 0.00 | 58 | 1018.5 |
| 20260508093736 | 40 | 117 | 1.0 | 4.0 | 0.00 | 0.00 | 0.00 | 58 | 1018.5 |
| 20260508093237 | 40 | 131 | 1.0 | 4.0 | 0.00 | 0.00 | 0.00 | 58 | 1018.5 |
| 20260508092736 | 40 | 115 | 1.0 | 5.0 | 0.00 | 0.00 | 0.00 | 58 | 1018.5 |
| 20260508092237 | 40 | 235 | 0.0 | 5.0 | 0.00 | 0.00 | 0.00 | 57 | 1018.5 |
| 20260508091737 | 41 | 118 | 1.0 | 5.0 | 0.00 | 0.00 | 0.00 | 56 | 1018.6 |
| 20260508091507 | 41 | 120 | 2.0 | 5.0 | 0.00 | 0.00 | 0.00 | 56 | 1018.6 |
| 20260508090738 | 41 | 105 | 1.0 | 4.0 | 0.00 | 0.00 | 0.00 | 56 | 1018.6 |
| 20260508090236 | 41 | 120 | 1.0 | 3.0 | 0.00 | 0.00 | 0.00 | 56 | 1018.6 |
| 20260508085737 | 41 | 147 | 1.0 | 3.0 | 0.00 | 0.00 | 0.00 | 56 | 1018.6 |
| 20260508085231 | 41 | 130 | 1.0 | 2.0 | 0.00 | 0.00 | 0.00 | 55 | 1018.6 |
| 20260508084957 | 41 | 133 | 0.0 | 2.0 | 0.00 | 0.00 | 0.00 | 56 | 1018.6 |
| 20260508084221 | 41 | 141 | 0.0 | 2.0 | 0.00 | 0.00 | 0.00 | 56 | 1018.7 |
| 20260508083718 | 41 | 141 | 0.0 | 3.0 | 0.00 | 0.00 | 0.00 | 55 | 1018.7 |
| 20260508083213 | 41 | 130 | 0.0 | 3.0 | 0.00 | 0.00 | 0.00 | 55 | 1018.8 |
| 20260508082708 | 41 | 133 | 1.0 | 3.0 | 0.00 | 0.00 | 0.00 | 54 | 1018.7 |
| 20260508082203 | 41 | 140 | 1.0 | 4.0 | 0.00 | 0.00 | 0.00 | 54 | 1018.8 |
| 20260508081657 | 42 | 133 | 1.0 | 4.0 | 0.00 | 0.00 | 0.00 | 53 | 1018.7 |
| 20260508081425 | 42 | 151 | 1.0 | 4.0 | 0.00 | 0.00 | 0.00 | 53 | 1018.8 |
| 20260508080647 | 42 | 134 | 1.0 | 4.0 | 0.00 | 0.00 | 0.00 | 52 | 1018.8 |
| 20260508080143 | 42 | 148 | 1.0 | 5.0 | 0.00 | 0.00 | 0.00 | 52 | 1019.0 |
| 20260508075643 | 43 | 80 | 2.0 | 5.0 | 0.00 | 0.00 | 0.00 | 51 | 1019.0 |
| 20260508075141 | 43 | 91 | 1.0 | 5.0 | 0.00 | 0.00 | 0.00 | 51 | 1019.0 |
| 20260508074644 | 43 | 152 | 1.0 | 4.0 | 0.00 | 0.00 | 0.00 | 51 | 1019.1 |
| 20260508074416 | 43 | 153 | 1.0 | 4.0 | 0.00 | 0.00 | 0.00 | 51 | 1019.1 |
| 20260508073643 | 42 | 106 | 0.0 | 4.0 | 0.00 | 0.00 | 0.00 | 52 | 1019.1 |
| 20260508073143 | 42 | 170 | 0.0 | 2.0 | 0.00 | 0.00 | 0.00 | 52 | 1019.1 |
| 20260508072642 | 42 | 147 | 0.0 | 2.0 | 0.00 | 0.00 | 0.00 | 52 | 1019.1 |
| 20260508072143 | 42 | 148 | 0.0 | 3.0 | 0.00 | 0.00 | 0.00 | 52 | 1019.1 |
| 20260508071637 | 43 | 124 | 0.0 | 3.0 | 0.00 | 0.00 | 0.00 | 51 | 1019.2 |
| 20260508071136 | 43 | 150 | 1.0 | 3.0 | 0.00 | 0.00 | 0.00 | 50 | 1019.1 |
| 20260508070136 | 43 | 124 | 1.0 | 4.0 | 0.00 | 0.00 | 0.00 | 50 | 1019.2 |
| 20260508065634 | 43 | 144 | 0.0 | 3.0 | 0.00 | 0.00 | 0.00 | 50 | 1019.2 |
| 20260508065406 | 43 | 120 | 0.0 | 3.0 | 0.00 | 0.00 | 0.00 | 49 | 1019.2 |
| 20260508064635 | 43 | 115 | 0.0 | 3.0 | 0.00 | 0.00 | 0.00 | 49 | 1019.2 |
| 20260508064135 | 44 | 133 | 0.0 | 3.0 | 0.00 | 0.00 | 0.00 | 48 | 1019.2 |
| 20260508063633 | 44 | 159 | 0.0 | 2.0 | 0.00 | 0.00 | 0.00 | 48 | 1019.2 |
| 20260508063134 | 44 | 159 | 1.0 | 4.0 | 0.00 | 0.00 | 0.00 | 48 | 1019.2 |
| 20260508062633 | 44 | 153 | 1.0 | 4.0 | 0.00 | 0.00 | 0.00 | 48 | 1019.1 |
| 20260508062127 | 44 | 122 | 1.0 | 4.0 | 0.00 | 0.00 | 0.00 | 47 | 1019.2 |
| 20260508061621 | 44 | 131 | 1.0 | 4.0 | 0.00 | 0.00 | 0.00 | 47 | 1019.2 |
| 20260508061114 | 44 | 127 | 0.0 | 2.0 | 0.00 | 0.00 | 0.00 | 47 | 1019.2 |
| 20260508060609 | 45 | 189 | 0.0 | 2.0 | 0.00 | 0.00 | 0.00 | 46 | 1019.2 |
| 20260508060103 | 45 | 138 | 1.0 | 3.0 | 0.00 | 0.00 | 0.00 | 46 | 1019.3 |
| 20260508055557 | 46 | 144 | 1.0 | 4.0 | 0.00 | 0.00 | 0.00 | 45 | 1019.2 |
| 20260508055055 | 46 | 105 | 1.0 | 4.0 | 0.00 | 0.00 | 0.00 | 45 | 1019.2 |
| 20260508054549 | 46 | 168 | 0.0 | 2.0 | 0.00 | 0.00 | 0.00 | 44 | 1019.3 |
| 20260508054045 | 46 | 119 | 0.0 | 2.0 | 0.00 | 0.00 | 0.00 | 44 | 1019.2 |
| 20260508053546 | 46 | 119 | 0.0 | 2.0 | 0.00 | 0.00 | 0.00 | 43 | 1019.3 |
| 20260508053044 | 46 | 117 | 0.0 | 2.0 | 0.00 | 0.00 | 0.00 | 43 | 1019.3 |
| 20260508052543 | 47 | 117 | 0.0 | 1.0 | 0.00 | 0.00 | 0.00 | 42 | 1019.4 |
| 20260508052315 | 47 | 117 | 0.0 | 1.0 | 0.00 | 0.00 | 0.00 | 42 | 1019.3 |
| 20260508051542 | 47 | 117 | 0.0 | 2.0 | 0.00 | 0.00 | 0.00 | 42 | 1019.3 |
| 20260508051315 | 47 | 118 | 0.0 | 2.0 | 0.00 | 0.00 | 0.00 | 41 | 1019.3 |
| 20260508050540 | 47 | 111 | 0.0 | 3.0 | 0.00 | 0.00 | 0.00 | 41 | 1019.3 |
| 20260508050038 | 47 | 111 | 1.0 | 3.0 | 0.00 | 0.00 | 0.00 | 41 | 1019.3 |
| 20260508045538 | 48 | 122 | 1.0 | 3.0 | 0.00 | 0.00 | 0.00 | 41 | 1019.3 |
| 20260508045038 | 48 | 108 | 0.0 | 3.0 | 0.00 | 0.00 | 0.00 | 40 | 1019.3 |
| 20260508044539 | 48 | 129 | 0.0 | 2.0 | 0.00 | 0.00 | 0.00 | 40 | 1019.2 |
| 20260508044034 | 48 | 129 | 0.0 | 2.0 | 0.00 | 0.00 | 0.00 | 40 | 1019.2 |
| 20260508043528 | 48 | 205 | 0.0 | 2.0 | 0.00 | 0.00 | 0.00 | 41 | 1019.2 |
| 20260508043026 | 48 | 119 | 0.0 | 2.0 | 0.00 | 0.00 | 0.00 | 41 | 1019.2 |
| 20260508042752 | 48 | 119 | 0.0 | 2.0 | 0.00 | 0.00 | 0.00 | 40 | 1019.1 |
| 20260508042255 | 49 | 149 | 0.0 | 1.0 | 0.00 | 0.00 | 0.00 | 40 | 1019.1 |
| 20260508041520 | 49 | 149 | 0.0 | 2.0 | 0.00 | 0.00 | 0.00 | 39 | 1019.1 |
| 20260508041019 | 49 | 149 | 0.0 | 2.0 | 0.00 | 0.00 | 0.00 | 38 | 1019.0 |
| 20260508040517 | 50 | 148 | 0.0 | 2.0 | 0.00 | 0.00 | 0.00 | 38 | 1019.0 |
| 20260508040018 | 51 | 127 | 0.0 | 2.0 | 0.00 | 0.00 | 0.00 | 38 | 1018.7 |
| 20260508035518 | 51 | 145 | 0.0 | 4.0 | 0.00 | 0.00 | 0.00 | 37 | 1018.7 |
| 20260508035015 | 51 | 127 | 0.0 | 4.0 | 0.00 | 0.00 | 0.00 | 38 | 1018.6 |
| 20260508034516 | 51 | 147 | 1.0 | 4.0 | 0.00 | 0.00 | 0.00 | 36 | 1018.6 |
| 20260508034245 | 51 | 148 | 0.0 | 4.0 | 0.00 | 0.00 | 0.00 | 36 | 1018.4 |
| 20260508033515 | 51 | 140 | 0.0 | 1.0 | 0.00 | 0.00 | 0.00 | 37 | 1018.3 |
| 20260508033014 | 52 | 131 | 0.0 | 1.0 | 0.00 | 0.00 | 0.00 | 37 | 1018.1 |
| 20260508032514 | 52 | 106 | 0.0 | 0.0 | 0.00 | 0.00 | 0.00 | 36 | 1018.0 |
| 20260508032015 | 53 | 106 | 0.0 | 3.0 | 0.00 | 0.00 | 0.00 | 35 | 1018.0 |
| 20260508031513 | 55 | 106 | 0.0 | 3.0 | 0.00 | 0.00 | 0.00 | 34 | 1018.0 |
| 20260508031241 | 55 | 106 | 1.0 | 3.0 | 0.00 | 0.00 | 0.00 | 33 | 1017.9 |
| 20260508030007 | 57 | 154 | 1.0 | 5.0 | 0.00 | 0.00 | 0.00 | 31 | 1017.7 |
| 20260508025510 | 56 | 102 | 1.0 | 5.0 | 0.00 | 0.00 | 0.00 | 31 | 1017.5 |
| 20260508025003 | 56 | 96 | 0.0 | 2.0 | 0.00 | 0.00 | 0.00 | 32 | 1017.5 |
| 20260508024505 | 56 | 255 | 0.0 | 0.0 | 0.00 | 0.00 | 0.00 | 32 | 1017.4 |
| 20260508024003 | 56 | 255 | 0.0 | 0.0 | 0.00 | 0.00 | 0.00 | 30 | 1017.3 |
| 20260508023501 | 58 | 255 | 0.0 | 0.0 | 0.00 | 0.00 | 0.00 | 29 | 1017.3 |
| 20260508022959 | 59 | 255 | 0.0 | 0.0 | 0.00 | 0.00 | 0.00 | 28 | 1017.3 |
| 20260508022459 | 60 | 255 | 0.0 | 0.0 | 0.00 | 0.00 | 0.00 | 27 | 1017.2 |
| 20260508021957 | 61 | 255 | 0.0 | 0.0 | 0.00 | 0.00 | 0.00 | 26 | 1017.2 |
| 20260508021725 | 62 | 255 | 0.0 | 0.0 | 0.00 | 0.00 | 0.00 | 24 | 1017.2 |
| 20260508020955 | 63 | 254 | 0.0 | 0.0 | 0.00 | 0.00 | 0.00 | 23 | 1017.1 |
| 20260508020455 | 64 | 254 | 0.0 | 0.0 | 0.00 | 0.00 | 0.00 | 22 | 1017.0 |
| 20260508015953 | 65 | 254 | 0.0 | 0.0 | 0.00 | 0.00 | 0.00 | 21 | 1016.8 |
| 20260508015725 | 65 | 255 | 0.0 | 0.0 | 0.00 | 0.00 | 0.00 | 20 | 1016.8 |
| 20260508015221 | 66 | 255 | 0.0 | 3.0 | 0.00 | 0.00 | 0.00 | 19 | 1016.8 |
| 20260508014449 | 67 | 255 | 0.0 | 3.0 | 0.00 | 0.00 | 0.00 | 19 | 1016.8 |
| 20260508013949 | 67 | 255 | 0.0 | 4.0 | 0.00 | 0.00 | 0.00 | 18 | 1016.7 |
| 20260508013449 | 68 | 255 | 0.0 | 4.0 | 0.00 | 0.00 | 0.00 | 18 | 1016.7 |
| 20260508012947 | 68 | 242 | 0.0 | 0.0 | 0.00 | 0.00 | 0.00 | 18 | 1016.7 |
| 20260508012447 | 69 | 242 | 0.0 | 0.0 | 0.00 | 0.00 | 0.00 | 18 | 1016.6 |
| 20260508011944 | 70 | 243 | 0.0 | 1.0 | 0.00 | 0.00 | 0.00 | 16 | 1016.6 |
| 20260508011444 | 71 | 242 | 0.0 | 6.0 | 0.00 | 0.00 | 0.00 | 14 | 1016.6 |
| 20260508010945 | 72 | 242 | 1.0 | 6.0 | 0.00 | 0.00 | 0.00 | 14 | 1016.5 |
| 20260508010443 | 73 | 259 | 2.0 | 6.0 | 0.00 | 0.00 | 0.00 | 14 | 1016.5 |
| 20260508005941 | 73 | 254 | 2.0 | 7.0 | 0.00 | 0.00 | 0.00 | 13 | 1016.4 |
| 20260508005713 | 74 | 231 | 3.0 | 7.0 | 0.00 | 0.00 | 0.00 | 13 | 1016.5 |
| 20260508004938 | 75 | 262 | 2.0 | 8.0 | 0.00 | 0.00 | 0.00 | 13 | 1016.5 |
| 20260508004437 | 75 | 250 | 1.0 | 8.0 | 0.00 | 0.00 | 0.00 | 14 | 1016.4 |
| 20260508004207 | 75 | 306 | 2.0 | 8.0 | 0.00 | 0.00 | 0.00 | 14 | 1016.4 |
| 20260508003437 | 75 | 251 | 2.0 | 8.0 | 0.00 | 0.00 | 0.00 | 13 | 1016.4 |
| 20260508002936 | 76 | 269 | 1.0 | 6.0 | 0.00 | 0.00 | 0.00 | 13 | 1016.4 |
| 20260508002435 | 76 | 227 | 0.0 | 5.0 | 0.00 | 0.00 | 0.00 | 12 | 1016.2 |
| 20260508001927 | 76 | 319 | 0.0 | 2.0 | 0.00 | 0.00 | 0.00 | 11 | 1016.4 |
| 20260508001426 | 76 | 319 | 1.0 | 8.0 | 0.00 | 0.00 | 0.00 | 11 | 1016.4 |
| 20260508000923 | 76 | 265 | 3.0 | 8.0 | 0.00 | 0.00 | 0.00 | 12 | 1016.5 |
| 20260508000421 | 75 | 247 | 3.0 | 9.0 | 0.00 | 0.00 | 0.00 | 11 | 1016.4 |
| 20260507235923 | 75 | 273 | 1.0 | 9.0 | 0.00 | 0.00 | 0.00 | 11 | 1016.4 |
| 20260507235419 | 75 | 238 | 1.0 | 4.0 | 0.00 | 0.00 | 0.00 | 10 | 1016.4 |
| 20260507234917 | 75 | 96 | 1.0 | 6.0 | 0.00 | 0.00 | 0.00 | 10 | 1016.4 |
| 20260507234416 | 76 | 84 | 1.0 | 6.0 | 0.00 | 0.00 | 0.00 | 10 | 1016.5 |
| 20260507233415 | 75 | 272 | 2.0 | 7.0 | 0.00 | 0.00 | 0.00 | 10 | 1016.5 |
| 20260507232915 | 76 | 49 | 1.0 | 6.0 | 0.00 | 0.00 | 0.00 | 11 | 1016.6 |
| 20260507232408 | 76 | 232 | 1.0 | 5.0 | 0.00 | 0.00 | 0.00 | 11 | 1016.5 |
| 20260507231908 | 76 | 242 | 1.0 | 5.0 | 0.00 | 0.00 | 0.00 | 10 | 1016.5 |
| 20260507231410 | 76 | 22 | 1.0 | 5.0 | 0.00 | 0.00 | 0.00 | 11 | 1016.5 |
| 20260507230909 | 76 | 265 | 2.0 | 8.0 | 0.00 | 0.00 | 0.00 | 11 | 1016.5 |
| 20260507230409 | 76 | 268 | 2.0 | 8.0 | 0.00 | 0.00 | 0.00 | 11 | 1016.6 |
| 20260507225909 | 75 | 272 | 3.0 | 12.0 | 0.00 | 0.00 | 0.00 | 11 | 1016.6 |
| 20260507225406 | 75 | 94 | 3.0 | 12.0 | 0.00 | 0.00 | 0.00 | 12 | 1016.6 |
| 20260507224905 | 75 | 38 | 4.0 | 12.0 | 0.00 | 0.00 | 0.00 | 10 | 1016.6 |
| 20260507224633 | 75 | 339 | 5.0 | 12.0 | 0.00 | 0.00 | 0.00 | 10 | 1016.6 |
| 20260507223903 | 76 | 273 | 4.0 | 10.0 | 0.00 | 0.00 | 0.00 | 10 | 1016.7 |
| 20260507223403 | 76 | 325 | 2.0 | 10.0 | 0.00 | 0.00 | 0.00 | 10 | 1016.7 |
| 20260507222904 | 76 | 344 | 1.0 | 10.0 | 0.00 | 0.00 | 0.00 | 11 | 1016.8 |
| 20260507222627 | 75 | 301 | 3.0 | 13.0 | 0.00 | 0.00 | 0.00 | 12 | 1016.7 |
| 20260507221854 | 75 | 250 | 3.0 | 13.0 | 0.00 | 0.00 | 0.00 | 10 | 1016.8 |
| 20260507221353 | 75 | 276 | 2.0 | 10.0 | 0.00 | 0.00 | 0.00 | 12 | 1016.8 |
| 20260507220852 | 75 | 298 | 3.0 | 10.0 | 0.00 | 0.00 | 0.00 | 14 | 1017.0 |
| 20260507220352 | 75 | 272 | 4.0 | 9.0 | 0.00 | 0.00 | 0.00 | 11 | 1017.1 |
| 20260507215845 | 74 | 251 | 4.0 | 9.0 | 0.00 | 0.00 | 0.00 | 12 | 1017.1 |
| 20260507215345 | 75 | 216 | 3.0 | 10.0 | 0.00 | 0.00 | 0.00 | 12 | 1017.1 |
| 20260507214846 | 74 | 271 | 3.0 | 10.0 | 0.00 | 0.00 | 0.00 | 14 | 1017.2 |
| 20260507214345 | 74 | 278 | 4.0 | 10.0 | 0.00 | 0.00 | 0.00 | 12 | 1017.3 |
| 20260507213846 | 75 | 300 | 4.0 | 10.0 | 0.00 | 0.00 | 0.00 | 12 | 1017.3 |
| 20260507213345 | 75 | 77 | 4.0 | 9.0 | 0.00 | 0.00 | 0.00 | 12 | 1017.4 |
| 20260507212839 | 75 | 271 | 3.0 | 9.0 | 0.00 | 0.00 | 0.00 | 12 | 1017.4 |
| 20260507212335 | 75 | 261 | 2.0 | 14.0 | 0.00 | 0.00 | 0.00 | 13 | 1017.5 |
| 20260507211835 | 75 | 43 | 2.0 | 14.0 | 0.00 | 0.00 | 0.00 | 11 | 1017.7 |
| 20260507211334 | 74 | 344 | 4.0 | 15.0 | 0.00 | 0.00 | 0.00 | 12 | 1017.8 |
| 20260507210833 | 74 | 318 | 5.0 | 15.0 | 0.00 | 0.00 | 0.00 | 14 | 1017.9 |
| 20260507210330 | 74 | 240 | 3.0 | 10.0 | 0.00 | 0.00 | 0.00 | 13 | 1017.9 |
| 20260507205830 | 74 | 70 | 3.0 | 8.0 | 0.00 | 0.00 | 0.00 | 12 | 1018.0 |
| 20260507205330 | 74 | 105 | 3.0 | 8.0 | 0.00 | 0.00 | 0.00 | 13 | 1018.0 |
| 20260507204829 | 74 | 71 | 2.0 | 7.0 | 0.00 | 0.00 | 0.00 | 14 | 1018.0 |
| 20260507204332 | 74 | 56 | 1.0 | 5.0 | 0.00 | 0.00 | 0.00 | 13 | 1018.1 |
| 20260507203831 | 74 | 18 | 2.0 | 7.0 | 0.00 | 0.00 | 0.00 | 12 | 1018.1 |
| 20260507203331 | 74 | 250 | 3.0 | 7.0 | 0.00 | 0.00 | 0.00 | 12 | 1018.1 |
| 20260507202826 | 74 | 237 | 2.0 | 9.0 | 0.00 | 0.00 | 0.00 | 14 | 1018.3 |
| 20260507202325 | 74 | 283 | 3.0 | 9.0 | 0.00 | 0.00 | 0.00 | 12 | 1018.3 |
| 20260507201824 | 74 | 35 | 4.0 | 10.0 | 0.00 | 0.00 | 0.00 | 13 | 1018.3 |
| 20260507201325 | 74 | 36 | 2.0 | 10.0 | 0.00 | 0.00 | 0.00 | 14 | 1018.4 |
| 20260507200825 | 73 | 35 | 3.0 | 11.0 | 0.00 | 0.00 | 0.00 | 13 | 1018.5 |
| 20260507200327 | 73 | 99 | 3.0 | 11.0 | 0.00 | 0.00 | 0.00 | 12 | 1018.6 |
| 20260507195818 | 73 | 356 | 2.0 | 9.0 | 0.00 | 0.00 | 0.00 | 13 | 1018.6 |
| 20260507195549 | 73 | 241 | 3.0 | 9.0 | 0.00 | 0.00 | 0.00 | 13 | 1018.6 |
| 20260507194819 | 73 | 20 | 2.0 | 8.0 | 0.00 | 0.00 | 0.00 | 13 | 1018.7 |
| 20260507194319 | 74 | 93 | 2.0 | 6.0 | 0.00 | 0.00 | 0.00 | 14 | 1018.7 |
| 20260507193819 | 73 | 90 | 2.0 | 5.0 | 0.00 | 0.00 | 0.00 | 13 | 1018.7 |
| 20260507193319 | 73 | 169 | 2.0 | 6.0 | 0.00 | 0.00 | 0.00 | 17 | 1018.8 |
| 20260507192812 | 72 | 234 | 3.0 | 7.0 | 0.00 | 0.00 | 0.00 | 15 | 1018.8 |
| 20260507192313 | 72 | 276 | 3.0 | 7.0 | 0.00 | 0.00 | 0.00 | 14 | 1019.0 |
| 20260507191815 | 72 | 110 | 2.0 | 7.0 | 0.00 | 0.00 | 0.00 | 15 | 1019.1 |
| 20260507191313 | 72 | 232 | 2.0 | 8.0 | 0.00 | 0.00 | 0.00 | 17 | 1019.1 |
| 20260507190814 | 71 | 273 | 2.0 | 8.0 | 0.00 | 0.00 | 0.00 | 15 | 1019.2 |
| 20260507190313 | 71 | 162 | 2.0 | 8.0 | 0.00 | 0.00 | 0.00 | 15 | 1019.4 |
| 20260507185808 | 71 | 88 | 3.0 | 8.0 | 0.00 | 0.00 | 0.00 | 15 | 1019.4 |
| 20260507185307 | 71 | 262 | 2.0 | 7.0 | 0.00 | 0.00 | 0.00 | 16 | 1019.3 |
| 20260507184806 | 71 | 220 | 3.0 | 9.0 | 0.00 | 0.00 | 0.00 | 15 | 1019.4 |
| 20260507184539 | 71 | 72 | 3.0 | 9.0 | 0.00 | 0.00 | 0.00 | 16 | 1019.6 |
| 20260507183807 | 71 | 162 | 3.0 | 9.0 | 0.00 | 0.00 | 0.00 | 16 | 1019.4 |
| 20260507183309 | 71 | 144 | 3.0 | 9.0 | 0.00 | 0.00 | 0.00 | 16 | 1019.7 |
| 20260507182801 | 71 | 207 | 2.0 | 9.0 | 0.00 | 0.00 | 0.00 | 16 | 1019.7 |